Location: �clusier
(49.9361°N, 2.7869°E)
Time: 04:59:34
(UTC+00:00)

Cosmos 2016 Rocket - Pass Details

Date: 28 October 2021
Orbit: 947 x 1000 km, 83.0° (Epoch: 05 December)

Event Time Altitude Azimuth Distance (km) Brightness Sun altitude
Rises 17:23:48 0° 127° (SE) 3,647 6.6 -8.8°
Reaches altitude 10° 17:27:45 10° 102° (ESE) 2,695 5.7 -9.4°
Maximum altitude 17:30:30 13° 75° (ENE) 2,452 5.4 -9.9°
Drops below altitude 10° 17:33:15 10° 49° (NE) 2,690 5.8 -10.3°
Sets 17:37:09 0° 24° (NNE) 3,635 6.7 -10.9°
